Powrót do katalogu

STARLINK-35206

AktywnyŁącznośćSSO
NORAD 65614·PAYLOAD·🇺🇸 United States

Wystrzelony Sep 13, 2025 z Cape Canaveral Space Force Station

Loading…

Następne Przeloty (najbliższe 24 godziny)

TLE

ŚwieżeSource: CelesTrak SupGP

Epoka: Sep 14, 2026, 21:43 UTC

1 65614C 25207Y   26257.90534722 -.00019722  00000+0 -11992-2 0  2575
2 65614  97.2846 320.5571 0001965  92.0275 255.7688 15.10552857    10

Śledź STARLINK-35206 w czasie rzeczywistym z AllMySat

Download on the App Store